Wind_Speed
32 34 35 35 35 35 36 36 37 38 38 39 40 40 41 42 44 47 48 43 40 40 41 40 37 38 36 35 33 32 32 33 32 31 32 33 34 35 36 36 36 37 38
33 35 36 36 37 37 38 39 39 39 40 41 42 43 43 45 47 48 49 43 41 42 42 42 39 38 38 37 34 33 32 33 33 33 34 34 35 37 38 39 40 41 42
33 34 35 37 38 38 40 40 41 41 42 43 44 44 46 48 50 51 46 44 44 44 44 43 39 38 38 36 34 33 33 33 34 35 35 35 37 38 40 42 42 42 42
34 33 35 37 38 40 41 41 42 43 44 45 46 47 48 50 52 49 45 45 45 46 45 42 39 37 37 37 36 34 32 33 34 36 38 38 38 39 40 41 43 43 43
33 34 36 38 39 41 42 43 44 45 46 47 48 49 50 52 50 47 47 47 46 46 44 40 37 37 37 37 37 35 34 35 36 38 39 41 42 43 42 42 44 45 48
33 35 36 38 40 42 43 44 45 46 48 49 49 50 52 51 50 50 50 48 47 45 42 39 38 38 38 37 38 38 38 39 40 42 43 44 44 45 46 47 48 49 51
33 35 36 38 40 42 43 45 46 48 50 50 50 51 52 52 52 52 51 49 48 44 41 40 39 40 39 40 42 43 43 43 44 45 47 47 48 50 51 51 51 52 55
34 36 38 39 41 43 45 47 49 50 50 51 52 53 53 53 53 52 50 50 47 44 41 41 41 41 43 44 46 47 46 47 48 50 51 51 52 53 54 55 56 57 57
35 37 39 42 44 46 49 50 50 50 51 52 52 52 53 53 52 50 51 50 46 43 42 43 44 46 47 48 50 50 50 51 53 54 55 55 56 56 58 58 59 59 54
39 41 44 46 48 49 50 51 51 51 52 52 52 53 53 52 51 52 51 48 46 44 44 45 46 48 50 52 54 55 55 55 57 58 58 58 59 60 59 58 57 55 55
43 45 46 48 49 50 51 51 51 52 52 53 54 55 54 53 54 53 50 47 47 47 47 48 50 52 54 56 58 59 59 60 61 61 61 60 61 60 58 57 57 58 60
45 46 47 47 48 48 49 50 52 54 55 56 55 55 55 54 53 51 49 48 49 49 49 51 52 55 57 60 61 63 64 64 64 64 65 65 63 59 59 60 62 63 64
44 45 46 47 49 52 54 55 56 56 55 54 54 54 52 51 51 51 50 50 51 52 53 54 56 58 61 62 64 65 66 66 68 68 66 65 64 62 62 64 66 67 68
43 45 48 49 50 51 52 54 54 54 54 53 53 52 53 52 52 51 52 52 53 55 56 58 61 63 64 66 67 68 69 69 68 67 67 67 65 65 66 68 69 71 72
47 48 49 50 51 53 53 53 53 53 54 54 54 54 54 54 55 55 56 57 58 59 61 62 64 66 67 68 69 69 70 71 71 68 68 67 67 68 69 71 73 75 78
48 48 49 50 51 51 52 53 54 54 55 55 56 56 56 56 57 58 59 60 61 62 64 66 68 69 71 71 71 72 71 68 68 68 68 69 70 70 71 74 76 80 84
53 53 52 53 53 54 54 54 54 55 56 56 57 57 58 59 60 61 62 63 64 65 66 67 68 69 69 69 67 68 70 70 69 70 72 72 72 74 77 79 82 84 87
49 51 52 52 53 53 54 55 57 58 58 59 59 59 59 60 61 62 63 63 64 64 65 66 66 66 68 69 69 70 69 70 73 74 75 75 76 78 82 85 86 87 90
53 54 54 54 55 56 57 58 58 59 59 60 61 61 61 61 62 63 63 63 62 63 64 65 65 65 67 68 69 70 68 68 68 69 72 76 79 83 88 92 94 95 96
58 57 57 57 57 56 57 58 59 59 60 59 58 58 59 61 61 61 60 61 62 62 63 63 63 64 64 65 65 66 66 69 73 76 79 84 89 92 96 100 98 93 86
60 62 62 61 62 61 61 60 57 55 54 54 56 57 59 58 58 57 59 62 62 61 61 61 60 60 62 64 67 71 75 79 82 85 88 92 96 95 89 85 82 78 73
63 64 65 65 64 62 60 58 57 56 55 54 55 56 55 55 56 59 59 59 59 59 59 60 61 63 66 70 74 79 83 88 91 94 96 92 87 82 75 68 62 58 54
61 59 58 57 55 55 54 52 52 52 53 53 52 52 53 55 56 56 55 56 59 61 62 65 67 70 73 78 82 86 91 95 96 92 86 81 74 66 55 45 43 45 45
52 52 52 51 50 49 49 48 49 48 46 48 50 52 53 53 54 55 58 61 64 66 68 71 74 78 81 84 90 93 94 89 82 76 70 63 54 42 34 36 40 42 39
51 50 48 45 44 44 44 44 44 44 45 47 49 51 53 55 58 60 63 66 68 73 76 78 82 84 87 89 91 87 80 75 69 63 52 41 32 30 33 37 39 37 39
43 44 43 42 43 43 43 43 45 46 48 50 53 55 57 58 62 67 70 71 73 74 75 77 81 84 86 84 78 73 69 65 55 44 34 26 27 31 35 35 34 34 34
Wind_Direction
248 250 254 258 263 268 272 275 278 282 286 289 291 293 294 294 295 299 306 303 299 295 297 296 288 275 273 280 285 289 290 292 293 296 296 296 296 295 294 293 292 290 288
251 254 258 262 266 270 273 276 280 283 286 288 290 293 292 292 295 301 303 299 296 295 297 296 288 279 272 272 276 282 286 288 291 294 296 298 298 297 295 293 291 289 287
256 258 263 266 270 273 275 279 282 284 286 288 290 291 290 293 298 301 299 296 297 299 299 295 287 279 271 270 272 276 282 286 291 293 294 295 297 295 294 292 289 287 286
259 262 265 269 272 274 277 280 282 284 286 288 289 289 292 295 298 300 295 297 298 298 296 291 283 277 274 274 274 277 282 286 289 292 294 295 294 293 290 288 289 288 287
261 265 267 271 274 276 278 280 281 284 286 287 288 292 294 297 299 296 298 298 298 298 294 287 282 279 278 279 281 282 283 286 289 289 290 292 293 292 288 285 286 285 287
264 266 268 270 272 274 277 280 282 284 285 288 290 293 296 298 296 297 298 298 298 296 289 282 280 280 281 281 281 283 284 286 287 289 291 291 291 290 289 288 286 285 284
266 267 269 271 274 276 279 280 281 283 286 289 293 296 296 294 295 298 297 298 298 293 286 282 282 284 283 282 283 285 286 288 289 290 290 290 288 287 286 284 282 282 283
267 269 272 274 275 276 278 280 281 285 289 293 295 294 293 295 297 297 297 297 295 289 283 281 281 282 283 283 285 287 288 289 289 289 288 288 286 285 283 283 283 282 282
269 270 272 273 274 276 278 281 285 290 292 292 291 295 296 296 296 295 295 297 294 289 284 282 281 283 285 287 288 287 287 288 289 288 287 286 285 284 284 283 282 281 278
265 267 270 272 275 279 283 287 290 291 289 291 293 294 294 294 294 294 295 293 292 289 287 286 286 286 286 286 286 287 289 289 288 287 286 285 285 284 283 282 280 279 278
267 271 275 279 282 286 288 288 287 288 290 291 293 294 294 295 295 296 294 290 290 289 288 286 286 286 287 288 288 289 288 287 286 285 285 285 284 283 281 279 279 281 281
276 280 283 285 285 285 284 285 287 290 291 292 292 293 294 294 294 293 291 290 289 288 287 287 287 287 287 286 286 286 286 286 286 286 286 285 283 281 280 281 281 281 282
285 286 286 285 284 285 287 289 289 289 290 290 291 292 292 292 292 291 291 291 290 289 288 288 286 285 284 284 285 286 286 285 285 285 285 285 283 281 282 283 284 284 284
286 284 284 284 285 286 286 286 287 288 290 290 290 290 291 291 290 289 289 288 287 287 287 287 287 287 287 287 286 286 287 287 287 286 285 283 281 281 282 283 284 284 284
286 285 284 285 285 286 288 289 290 289 289 288 288 288 288 289 289 289 288 288 289 289 288 288 288 288 288 288 288 288 287 286 286 284 283 282 283 284 285 285 285 285 286
287 286 285 283 281 281 282 283 285 286 286 286 287 287 288 289 289 289 290 290 289 289 289 288 288 288 288 288 289 290 290 288 285 284 284 285 285 284 284 285 286 287 288
290 290 290 290 290 289 287 286 286 286 286 287 287 288 289 289 289 289 288 289 289 289 290 291 292 293 293 292 292 290 290 290 290 289 289 289 288 287 287 287 288 289 289
294 294 294 293 292 291 290 291 291 290 290 290 289 289 289 289 289 289 291 292 294 295 295 295 295 294 293 292 291 290 289 288 289 289 289 289 290 289 287 287 287 288 289
294 294 294 294 294 294 293 293 292 292 292 292 292 292 293 293 291 293 294 296 297 295 294 294 293 294 292 290 291 293 293 292 291 291 291 290 289 288 288 291 292 292 293
291 291 291 291 291 290 290 290 291 291 291 291 292 292 290 291 293 295 297 297 294 295 295 294 294 293 292 292 294 294 293 290 289 288 290 292 294 294 295 295 295 294 291
288 290 291 294 296 296 297 296 295 294 292 289 289 289 291 293 296 298 294 293 295 295 295 295 294 294 294 294 294 293 292 293 294 296 297 298 298 298 296 293 293 293 292
294 294 294 295 296 296 295 294 293 291 290 289 289 292 295 296 294 294 296 297 297 296 295 294 295 296 297 298 297 298 299 300 301 301 301 301 299 297 296 294 290 290 292
298 298 297 297 296 295 294 293 291 290 290 293 293 294 295 295 296 297 297 297 297 297 297 297 297 298 299 301 301 302 303 304 304 304 302 302 301 298 293 289 288 293 294
302 301 300 299 298 296 294 292 292 293 292 292 293 293 296 298 299 300 300 300 299 299 300 301 301 301 302 304 304 305 305 305 304 304 303 301 297 293 290 287 293 294 296
304 303 303 303 302 300 298 295 295 296 298 298 299 299 300 301 302 303 304 303 303 303 304 304 304 304 304 305 307 307 306 305 306 305 303 298 292 289 292 293 295 293 298
304 303 304 304 303 303 303 303 302 302 302 301 301 302 302 302 302 305 307 306 305 305 305 306 306 306 307 307 307 308 308 308 307 304 300 294 294 297 298 296 300 296 299
Height
5829 5830 5830 5831 5831 5832 5832 5830 5829 5827 5825 5823 5820 5817 5814 5811 5808 5805 5801 5798 5795 5791 5787 5784 5781 5779 5777 5776 5774 5772 5770 5768 5765 5764 5762 5761 5759 5757 5755 5753 5752 5750 5748
5824 5825 5826 5826 5826 5826 5825 5823 5822 5820 5818 5815 5812 5809 5806 5803 5800 5797 5793 5790 5786 5782 5779 5775 5772 5769 5768 5767 5765 5764 5762 5760 5758 5756 5754 5752 5751 5748 5746 5744 5742 5740 5738
5818 5820 5820 5820 5819 5818 5817 5816 5814 5812 5809 5807 5804 5801 5798 5795 5791 5788 5784 5781 5777 5773 5770 5766 5762 5760 5759 5758 5756 5754 5752 5751 5749 5747 5745 5743 5741 5740 5737 5734 5732 5729 5728
5813 5814 5813 5813 5812 5811 5809 5807 5806 5803 5801 5798 5795 5792 5789 5785 5782 5778 5775 5772 5768 5764 5760 5756 5753 5751 5750 5749 5747 5745 5743 5741 5739 5737 5734 5732 5731 5729 5727 5724 5720 5718 5716
5807 5807 5806 5805 5804 5803 5801 5799 5797 5795 5792 5789 5786 5783 5779 5775 5772 5769 5765 5762 5758 5754 5750 5747 5745 5743 5741 5740 5739 5736 5734 5732 5729 5727 5725 5722 5719 5717 5716 5714 5710 5708 5705
5801 5801 5799 5798 5797 5795 5793 5791 5789 5786 5783 5780 5777 5773 5769 5765 5762 5759 5755 5751 5748 5744 5741 5738 5736 5734 5733 5731 5730 5727 5724 5721 5719 5716 5713 5711 5709 5706 5703 5701 5698 5696 5693
5795 5793 5792 5790 5789 5787 5785 5783 5780 5777 5774 5771 5767 5763 5760 5756 5752 5749 5745 5741 5737 5734 5731 5729 5727 5725 5724 5722 5720 5717 5713 5711 5708 5705 5702 5699 5696 5692 5690 5687 5684 5682 5678
5787 5786 5784 5783 5781 5779 5777 5774 5771 5768 5765 5761 5758 5754 5750 5746 5742 5738 5734 5730 5726 5723 5721 5719 5717 5715 5713 5711 5709 5706 5702 5699 5696 5693 5689 5686 5682 5679 5675 5671 5668 5666 5663
5780 5779 5777 5776 5773 5771 5768 5764 5761 5758 5755 5752 5747 5743 5739 5735 5730 5726 5722 5719 5715 5712 5710 5708 5706 5704 5702 5700 5697 5694 5690 5687 5683 5679 5675 5671 5667 5663 5659 5655 5651 5647 5647
5772 5771 5769 5767 5764 5761 5758 5755 5752 5749 5744 5740 5736 5732 5727 5723 5719 5715 5711 5708 5705 5702 5700 5697 5695 5692 5690 5687 5684 5680 5676 5673 5669 5665 5660 5656 5651 5647 5643 5639 5635 5631 5629
5764 5762 5760 5758 5755 5752 5749 5745 5741 5736 5733 5729 5725 5720 5715 5711 5707 5703 5699 5696 5694 5691 5688 5685 5682 5679 5676 5672 5669 5665 5661 5657 5653 5649 5644 5640 5634 5630 5626 5622 5619 5615 5611
5756 5754 5751 5748 5744 5740 5736 5732 5728 5725 5721 5717 5712 5707 5703 5699 5694 5691 5687 5684 5681 5678 5675 5672 5669 5666 5662 5658 5654 5649 5645 5641 5636 5631 5627 5622 5617 5613 5609 5604 5600 5597 5593
5747 5744 5740 5736 5733 5729 5725 5721 5716 5712 5707 5703 5698 5694 5690 5686 5682 5678 5675 5672 5669 5665 5661 5658 5654 5650 5646 5641 5637 5632 5628 5624 5619 5614 5609 5604 5598 5594 5590 5586 5583 5579 5575
5736 5732 5728 5724 5720 5716 5711 5707 5702 5698 5693 5689 5685 5681 5677 5673 5669 5665 5661 5657 5653 5650 5646 5642 5638 5634 5629 5624 5620 5615 5611 5606 5602 5596 5591 5586 5581 5576 5571 5566 5562 5558 5554
5723 5719 5715 5710 5706 5701 5697 5693 5689 5685 5680 5676 5671 5667 5663 5659 5655 5650 5646 5642 5639 5635 5631 5626 5622 5617 5611 5606 5601 5597 5593 5588 5583 5578 5573 5568 5562 5556 5550 5546 5542 5537 5533
5710 5705 5701 5696 5692 5687 5683 5678 5674 5670 5665 5661 5657 5653 5648 5644 5640 5636 5631 5627 5623 5619 5614 5609 5604 5599 5594 5588 5582 5578 5575 5570 5565 5560 5554 5549 5542 5536 5530 5525 5520 5515 5509
5701 5696 5691 5686 5681 5676 5671 5666 5661 5656 5651 5646 5642 5637 5633 5629 5625 5620 5615 5611 5607 5602 5597 5592 5587 5582 5576 5570 5565 5560 5556 5551 5546 5540 5535 5528 5521 5515 5509 5504 5499 5493 5486
5688 5683 5679 5674 5668 5662 5658 5653 5648 5643 5638 5633 5627 5622 5618 5614 5608 5603 5599 5595 5590 5585 5580 5574 5568 5563 5557 5550 5545 5540 5536 5532 5526 5519 5513 5507 5501 5493 5485 5481 5476 5471 5463
5673 5668 5662 5657 5653 5648 5642 5637 5632 5627 5622 5617 5612 5608 5603 5598 5592 5588 5583 5579 5574 5568 5562 5556 5550 5545 5540 5532 5526 5521 5517 5512 5507 5501 5494 5485 5478 5471 5461 5452 5446 5443 5435
5660 5654 5648 5643 5638 5632 5627 5622 5617 5612 5607 5602 5596 5591 5586 5581 5577 5572 5568 5562 5555 5551 5545 5540 5533 5527 5521 5514 5508 5502 5496 5492 5487 5480 5473 5463 5452 5445 5433 5418 5410 5406 5402
5644 5638 5633 5627 5622 5617 5611 5606 5601 5596 5591 5586 5580 5574 5569 5565 5560 5556 5549 5544 5538 5533 5527 5522 5515 5509 5502 5496 5488 5480 5473 5466 5462 5455 5448 5437 5423 5412 5401 5388 5379 5371 5367
5629 5624 5618 5612 5606 5601 5594 5589 5584 5579 5575 5569 5564 5559 5554 5549 5543 5538 5533 5527 5521 5516 5510 5504 5499 5491 5483 5475 5467 5459 5450 5441 5433 5426 5416 5406 5393 5382 5372 5362 5354 5349 5345
5611 5605 5600 5595 5590 5585 5579 5574 5569 5564 5559 5555 5550 5544 5539 5533 5528 5523 5517 5512 5505 5498 5493 5486 5480 5473 5464 5455 5445 5436 5426 5416 5404 5394 5384 5373 5365 5356 5349 5344 5339 5336 5332
5596 5591 5585 5580 5575 5570 5565 5560 5555 5551 5546 5541 5535 5529 5525 5520 5514 5509 5503 5496 5488 5481 5475 5467 5459 5452 5444 5431 5421 5411 5401 5390 5379 5369 5360 5350 5343 5338 5335 5333 5329 5325 5321
5584 5579 5573 5568 5563 5558 5553 5548 5544 5539 5535 5529 5523 5518 5512 5507 5501 5495 5488 5480 5471 5460 5452 5444 5435 5426 5421 5409 5396 5384 5374 5364 5357 5348 5342 5335 5330 5328 5326 5322 5318 5314 5311
5574 5569 5563 5557 5552 5547 5542 5537 5532 5528 5523 5517 5510 5504 5498 5492 5485 5478 5472 5462 5452 5443 5433 5422 5412 5405 5394 5385 5375 5363 5353 5344 5337 5332 5327 5325 5322 5319 5316 5312 5309 5305 5302